Lone Rock, WI

12:42 AM CST on November 25, 2017 (GMT -0600)
Tri-County Regional

Weather History for KLNR - April, 2013

Change the Weather History Date:

Sunday, April 21, 2013

  Actual Average Record
Temperature  
Mean Temperature 44 °F -  
Max Temperature 55 °F 58 °F 78 °F (2007)
Min Temperature 33 °F 36 °F 28 °F (2011)
Degree Days  
Heating Degree Days 21    
Moisture  
Dew Point 30 °F    
Average Humidity 59    
Maximum Humidity 72    
Minimum Humidity 43    
Precipitation  
Precipitation 0.00 in - - ()
Sea Level Pressure  
Sea Level Pressure 30.34 in    
Wind  
Wind Speed 10 mph (SE)    
Max Wind Speed 22 mph    
Max Gust Speed 29 mph    
Visibility 9 miles    
Events Snow    
Averages and records for this station are not official NWS values.
T = Trace of Precipitation, MM = Missing Value Source: NWS Daily Summary

Daily Weather History Graph

Daily Weather History Graph

Search for Another Location

Airport or City:

Trip Planner

Search our weather history database for the weather conditions in past years. The results will help you decide how hot, cold, wet, or windy it might be!

Date:

Astronomy

Apr. 21, 2013 Rise Set
Actual Time 6:08 AM CDT 7:50 PM CDT
Civil Twilight 5:38 AM CDT 8:21 PM CDT
Nautical Twilight 5:01 AM CDT 8:57 PM CDT
Astronomical Twilight 4:22 AM CDT 9:37 PM CDT
Moon 3:29 PM CDT (4/21) 3:38 AM CDT (4/21)
Length of Visible Light 14h 42m
Length of Day
13h 42m
Waxing Gibbous, 80% of the Moon is Illuminated
Apr 21
Waxing Gibbous
Apr 25
Full
May 2
Last Quarter
May 9
New
May 17
First Quarter

Hourly Weather History & Observations

Time (CDT) Temp. Windchill Dew Point Humidity Pressure Visibility Wind Dir Wind Speed Gust Speed Precip Events Conditions
12:56 AM 33.1 °F - 25.0 °F 72% 30.38 in 10.0 mi Calm Calm - N/A   Overcast
1:56 AM 34.0 °F 28.8 °F 25.0 °F 70% 30.38 in 10.0 mi East 5.8 mph - N/A   Scattered Clouds
2:56 AM 34.0 °F 29.8 °F 25.0 °F 70% 30.38 in 10.0 mi East 4.6 mph - N/A   Overcast
3:56 AM 36.0 °F 29.6 °F 26.1 °F 67% 30.39 in 10.0 mi East 8.1 mph - N/A   Overcast
4:56 AM 37.0 °F 29.8 °F 26.1 °F 65% 30.39 in 10.0 mi ESE 10.4 mph - N/A   Overcast
5:56 AM 37.0 °F 31.6 °F 25.0 °F 62% 30.42 in 10.0 mi ESE 6.9 mph - N/A   Overcast
6:56 AM 36.0 °F 27.5 °F 25.0 °F 64% 30.43 in 10.0 mi East 12.7 mph - N/A   Overcast
7:56 AM 37.9 °F 31.5 °F 25.0 °F 60% 30.45 in 10.0 mi ESE 9.2 mph - N/A   Overcast
8:40 AM 37.4 °F 30.8 °F 26.6 °F 65% 30.45 in 4.0 mi SE 9.2 mph 16.1 mph 0.00 in Snow Light Snow
8:56 AM 37.9 °F 32.1 °F 26.1 °F 62% 30.45 in 9.0 mi ESE 8.1 mph - 0.00 in   Overcast
9:36 AM 37.4 °F 27.8 °F 26.6 °F 65% 30.44 in 4.0 mi SSE 17.3 mph 21.9 mph 0.00 in Snow Light Snow
9:56 AM 37.9 °F 28.9 °F 28.0 °F 68% 30.45 in 4.0 mi SE 16.1 mph 21.9 mph 0.00 in Snow Light Snow
10:56 AM 39.9 °F 30.5 °F 30.0 °F 68% 30.42 in 10.0 mi East 19.6 mph - 0.00 in   Overcast
11:56 AM 46.0 °F 39.6 °F 26.1 °F 46% 30.38 in 10.0 mi SSE 15.0 mph 25.3 mph N/A   Overcast
12:56 PM 48.0 °F - 27.0 °F 44% 30.35 in 10.0 mi SSE 17.3 mph 25.3 mph N/A   Overcast
1:56 PM 48.0 °F - 28.0 °F 46% 30.34 in 10.0 mi SSE 15.0 mph 25.3 mph N/A   Overcast
2:56 PM 52.0 °F - 30.0 °F 43% 30.30 in 10.0 mi SE 17.3 mph 23.0 mph N/A   Scattered Clouds
3:56 PM 52.0 °F - 32.0 °F 47% 30.27 in 10.0 mi SSE 13.8 mph 25.3 mph N/A   Mostly Cloudy
4:56 PM 53.1 °F - 34.0 °F 48% 30.25 in 10.0 mi SE 16.1 mph 20.7 mph N/A   Partly Cloudy
5:56 PM 55.0 °F - 36.0 °F 49% 30.22 in 10.0 mi SSE 13.8 mph 24.2 mph N/A   Clear
6:56 PM 53.1 °F - 37.0 °F 55% 30.21 in 10.0 mi SE 11.5 mph 20.7 mph N/A   Clear
7:56 PM 52.0 °F - 37.0 °F 57% 30.21 in 10.0 mi SSE 12.7 mph 21.9 mph N/A   Mostly Cloudy
8:56 PM 52.0 °F - 37.0 °F 57% 30.21 in 10.0 mi SSE 17.3 mph 24.2 mph N/A   Mostly Cloudy
9:56 PM 51.1 °F - 37.0 °F 59% 30.22 in 10.0 mi SSE 15.0 mph 27.6 mph N/A   Scattered Clouds
10:56 PM 51.1 °F - 37.0 °F 59% 30.21 in 10.0 mi SSE 19.6 mph 28.8 mph N/A   Overcast
11:56 PM 50.0 °F - 36.0 °F 59% 30.20 in 10.0 mi SSE 21.9 mph 28.8 mph N/A   Overcast